Content
SEND FEEDBACK

Daily
Averages
Monthly
Summary
Canada

PORCUPINE, ONTARIO


Home > North America > Canada > Ontario
Elevation: 980 feet     Latitude: 48 28N     Longitude: 81 16W

WEATHER
 
SELECT A DAY
Number of Records: 186,673;   Date Range: 1/1/95 - 12/16/14
 
SHARE

PRINT THIS DATA

[ ← Previous Day ]
WEATHER ALMANAC - FEBRUARY 13, 2013
[ Next Day → ]
[ °C ]   °F
Weather ElementAverageHighLow
Temperature24.1 °F28 °F (7:00 pm)17.6 °F (1:00 am)
Dewpoint20.1 °F24.8 °F (8:00 pm)15.8 °F (1:00 am)
Humidity84.2 %93 % (1:00 am)69 % (7:00 am)
Barometer29.63 in29.73 in (1:00 am)29.57 in (1:38 pm)
Wind Speed7.8 mph12.7 mph (11:09 am)
Wind Gust17.3 mph (10:00 am)
Weather ElementAverage
Visibility7.9 mi
Wind DirectionSSW (199.7 °)

Weather ElementTotal
Precipitation---
Heating Degree Days42.2 (Base 65)
Averaged from 39 records on February 13, 2013
WEATHER CONDITIONS BREAKOUT
WIND DIRECTION BREAKOUT
WEATHER BY HOUR - FEBRUARY 13, 2013
[ °C ]   °F
Local TimeTemperatureDewpointHumidityBarometerVisibilityWind DirectionWind SpeedGust SpeedPrecipitationEventsConditions
1:00 AM18.0 °F16.0 °F86 %29.73 in15.0 miSouth (190°)4.6 mphOvercast
1:00 AM17.6 °F15.8 °F93 %29.73 in15.0 miSouth (190°)5.8 mphSnowLight Snow
2:00 AM19.4 °F15.8 °F86 %29.72 in15.0 miSSW (200°)5.8 mphSnowLight Snow
3:00 AM19.4 °F17.6 °F93 %29.71 in15.0 miSSW (200°)5.8 mphSnowLight Snow
4:00 AM19.4 °F17.6 °F93 %29.69 in12.0 miSSW (200°)5.8 mphSnowLight Snow
5:00 AM21.2 °F17.6 °F86 %29.69 in12.0 miSouth (190°)8.1 mphSnowLight Snow
6:00 AM21.2 °F17.6 °F86 %29.68 in12.0 miSouth (190°)8.1 mphSnowLight Snow
7:00 AM22.0 °F16.0 °F69 %29.66 in15.0 miSouth (190°)9.2 mphOvercast
7:00 AM21.2 °F15.8 °F80 %29.66 in15.0 miSSW (200°)8.1 mphSnowLight Snow
8:00 AM21.2 °F15.8 °F80 %29.66 in15.0 miSouth (190°)8.1 mphSnowLight Snow
9:00 AM21.2 °F15.8 °F80 %29.65 in15.0 miSSW (200°)10.4 mphSnowLight Snow
10:00 AM21.2 °F17.6 °F86 %29.64 in12.0 miSSW (200°)10.4 mph17.3 mphSnowLight Snow
11:00 AM23.0 °F17.6 °F80 %29.62 in15.0 miSouth (190°)10.4 mphSnowLight Snow
11:09 AM23.0 °F17.6 °F80 %29.62 in2.0 miSouth (190°)12.7 mphSnowLight Snow
11:14 AM23.0 °F17.6 °F80 %29.62 in3.0 miSouth (190°)11.5 mphSnowLight Snow
11:29 AM24.8 °F17.6 °F74 %29.62 in5.0 miSouth (190°)11.5 mph17.3 mphSnowLight Snow
11:43 AM24.8 °F19.4 °F80 %29.61 in3.0 miSouth (190°)9.2 mphSnowLight Snow
11:47 AM24.8 °F19.4 °F80 %29.61 in2.0 miSouth (190°)9.2 mphSnowLight Snow
12:00 PM24.8 °F19.4 °F80 %29.61 in2.0 miSouth (190°)10.4 mphSnowLight Snow
12:12 PM24.8 °F19.4 °F80 %29.60 in4.0 miSSW (200°)9.2 mphSnowLight Snow
12:35 PM24.8 °F19.4 °F80 %29.59 in2.0 miSouth (180°)11.5 mph17.3 mphSnowLight Snow
12:41 PM24.8 °F21.2 °F86 %29.58 in1.0 miSouth (180°)9.2 mphSnowLight Snow
1:00 PM26.0 °F21.0 °F76 %29.58 in1.0 miSouth (190°)10.4 mphOvercast
1:00 PM26.6 °F21.2 °F80 %29.58 in1.0 miSouth (190°)11.5 mphSnowLight Snow
1:38 PM26.6 °F23.0 °F86 %29.57 in0.8 miSSW (200°)6.9 mphSnowLight Snow
2:00 PM26.6 °F23.0 °F86 %29.57 in0.8 miSSW (210°)8.1 mphSnowLight Snow
2:20 PM26.6 °F23.0 °F86 %29.57 in1.0 miSouth (190°)9.2 mphSnowLight Snow
2:36 PM26.6 °F23.0 °F86 %29.57 in1.5 miSouth (190°)9.2 mphSnowLight Snow
2:49 PM26.6 °F23.0 °F86 %29.57 in3.0 miSW (220°)8.1 mphSnowLight Snow
3:00 PM26.6 °F23.0 °F86 %29.57 in6.0 miSSW (210°)6.9 mphSnowLight Snow
4:00 PM26.6 °F23.0 °F86 %29.58 in10.0 miSSW (200°)5.8 mphSnowLight Snow
5:00 PM26.6 °F23.0 °F86 %29.59 in10.0 miSSW (200°)4.6 mphSnowLight Snow
6:00 PM26.6 °F23.0 °F86 %29.60 in10.0 miSSW (200°)5.8 mphSnowLight Snow
7:00 PM28.0 °F24.0 °F78 %29.61 in10.0 miSSW (210°)4.6 mphOvercast
7:00 PM26.6 °F23.0 °F86 %29.61 in10.0 miSSW (200°)4.6 mphSnowLight Snow
8:00 PM26.6 °F24.8 °F93 %29.63 in6.0 miNW (310°)5.8 mphSnowLight Snow
9:00 PM26.6 °F24.8 °F93 %29.63 in10.0 miSW (220°)3.5 mphSnowLight Snow
10:00 PM26.6 °F24.8 °F93 %29.64 in10.0 miSSW (210°)3.5 mphSnowLight Snow
11:00 PM26.6 °F24.8 °F93 %29.64 in10.0 miSSW (210°)2.3 mphSnowLight Snow
Hourly data recorded from CYTS, located miles away from Porcupine, Ontario







STORIES FROM OUR PARTNERS